THORAD AGENA D DEB, 42553

Orbit data source: Space-Track

THORAD AGENA D DEB, 42553 is space debris in SSO originally from a launch on Wed, 08 Apr 1970 UTC launched from the Air Force Western Test Range (AFWTR). Debris objects in space refer to the collection of defunct objects orbiting the Earth. Examples of debris include non-operational satellites, rocket bodies, and fragments generated from explosions, collisions, or faulty payload assembly.

Loading next visibility...
Identifier
42553, 1970-025TK
Orbit
SSO
Country
Flag of USUS
Related business
Manufacturer
Unknown
Mission
Spacecraft
Bus & Motor
Unknown
Mass
Unknown
Launch date (UTC)
1970-04-08 (56 years ago)
Launch vehicle
Unknown
Launch site
Air Force Western Test Range (AFWTR)
Object type
Payload
Rocket body
Debris
Shape & HBR
Unknown shape, 0.1 m
Radar Cross Section
Small (<0.1 m²)

Expand to show TLE details & history
Last TLE update: 3 days ago

TLE from 3 days ago
0 THORAD AGENA D DEB
1 42553U 70025TK  26166.83152013 -.00000055  00000-0 -33397-4 0  9998
2 42553 100.0693 179.5936 0126741 312.4153  46.6291 13.11043695555387
Epoch: 2026-06-15T19:57Z
TLE epoch observation values (Epoch: 2026-06-15T19:57:23.339Z)
Latitude
-0.00003°
Longitude
-23.8659°
Altitude
1,156.363 km
Speed
7.306 km/s
True Right ascension
11h 58m 22s
True Declination
0° 00' 00"
Sunlit
Object was in daylight at epoch
Visualization orbit readout
Latitude
Unknown
Longitude
Unknown
Altitude
Unknown
Speed
Unknown
Apparent Right ascension
Unknown
Apparent Declination
Unknown
Sunlit
N/A
Visualization observer readout
Local Sidereal Time
08:51:10
Azimuth
Unknown
Elevation
Unknown
Doppler factor
Unknown
Orbital elements
Apogee altitude
1,312.751 km
Perigee altitude
1,120.241 km
Semi-major axis
7,594.633 km
Eccentricity
0.01267
Inclination
100.0693°
RAAN
179.5936°
Arg. of periapsis
312.4153°
True anomaly
47.69639°
Mean anomaly
46.6291°
Eccentric anomaly
47.16158°
Mean motion
3.27931 °/min
Orbital period
109.78 mins
BSTAR
-0.000033397
Loading maneuver chart data...
Computing Atmospheric mass density...

Documentation

Showing up to 5 results
|